GFSNW_sfc_30mbdewp_159.txt.gz
Dewpoint
43 42 42 43 43 41 42 38 32 43 47 35 34 32 35 37 35 35 35 36 34 34 28 18 18 17 12 14 13 7 12 13 6 4 9 6 5 5 9 2 4 13 10 4
43 42 42 41 42 43 40 34 34 40 40 29 29 32 34 34 35 34 36 33 36 35 33 28 22 18 19 16 12 11 12 9 6 5 8 9 5 11 13 15 15 10 2 5
41 41 41 41 42 42 39 33 29 33 35 35 33 30 32 33 34 33 36 39 36 38 30 33 27 21 19 19 16 21 13 12 7 5 6 9 6 7 15 8 6 4 10 13
40 41 41 40 42 42 40 35 30 31 27 30 32 32 31 31 32 32 31 31 36 36 33 30 29 23 17 17 19 16 12 7 9 10 9 8 8 7 15 11 9 8 8 13
40 40 41 42 41 42 40 31 31 33 29 27 31 31 28 29 29 30 33 31 29 36 33 33 31 27 22 14 15 14 17 10 10 7 12 11 8 9 9 12 14 15 13 12
39 39 41 41 41 41 36 37 37 34 30 29 30 28 28 26 30 33 31 31 34 35 34 36 37 37 36 28 20 18 14 14 9 6 11 9 4 9 9 8 12 14 13 16
38 39 40 41 41 41 38 38 35 31 25 29 28 28 29 28 28 28 32 32 31 34 31 28 30 33 34 32 23 21 16 15 13 12 11 7 10 16 10 10 18 16 16 20
36 38 40 41 41 41 40 39 36 33 26 30 28 28 28 29 30 31 34 37 36 33 33 30 27 26 24 20 19 17 17 17 15 11 11 12 11 14 12 11 16 25 21 23
37 38 39 40 41 42 40 37 38 37 28 26 33 30 29 29 30 31 34 39 39 36 32 30 24 21 24 18 18 22 21 19 14 17 10 9 14 19 22 19 12 25 24 24
37 37 39 40 39 41 41 38 40 37 31 31 33 32 31 30 30 30 35 36 36 37 32 27 24 23 22 19 18 17 18 18 11 17 15 16 20 20 19 13 14 26 26 27
35 37 38 39 39 40 41 38 42 37 33 32 36 37 35 35 31 31 34 33 34 31 29 28 26 24 21 17 20 18 16 16 16 17 15 13 23 20 16 23 29 28 27 27
35 36 37 38 38 38 42 36 41 42 36 34 39 39 39 37 37 37 35 31 33 32 28 27 22 18 19 18 16 21 16 18 18 18 18 26 31 25 29 29 27 28 27 28
36 36 37 37 37 36 39 37 40 39 36 33 35 33 37 42 43 43 35 34 32 30 29 25 23 16 20 15 18 19 23 23 20 23 29 30 31 31 30 29 28 28 28 23
37 38 38 37 37 37 38 38 41 37 36 30 30 39 36 41 43 43 40 35 33 32 30 25 22 20 22 21 21 19 22 24 25 27 30 30 30 30 29 28 26 24 22 20
37 37 38 37 37 38 39 41 41 41 34 30 32 37 39 40 44 39 35 34 31 26 24 22 21 20 18 23 24 22 27 23 21 21 30 27 29 30 28 25 22 20 18 18
40 39 39 38 38 39 39 34 39 43 40 32 28 35 35 40 40 38 34 33 32 26 25 24 24 24 16 13 17 21 27 28 25 23 31 30 30 30 27 25 18 17 17 18
40 39 39 38 39 39 35 32 36 42 39 32 29 30 33 38 33 32 29 29 27 23 23 19 17 19 20 17 13 26 30 31 31 31 30 29 29 27 21 19 18 18 17 18
38 39 39 39 40 39 37 41 44 40 37 35 28 28 31 35 27 23 30 24 25 27 23 20 18 23 21 13 24 32 31 31 30 30 30 29 27 20 18 17 16 14 14 15
39 40 40 39 38 36 36 44 43 41 36 30 29 25 25 29 28 28 27 26 21 28 20 18 19 19 7 20 30 31 30 29 29 29 26 24 21 18 16 16 15 13 13 13
40 39 34 32 37 43 41 38 34 34 34 32 26 28 23 26 27 26 24 24 21 15 24 26 21 21 25 28 30 30 29 27 26 25 24 22 19 18 16 16 15 14 13 13
36 33 32 40 40 36 33 29 29 30 28 29 26 26 24 29 21 25 27 20 23 18 21 21 23 20 24 28 28 29 28 27 27 27 25 23 20 18 16 16 16 15 15 13
36 38 39 37 34 31 27 24 26 26 25 27 24 24 28 29 29 24 25 24 24 18 24 18 21 23 27 27 27 27 27 26 24 23 21 19 17 17 17 16 16 16 14 13
36 31 31 29 29 22 18 19 24 24 26 27 26 24 27 29 28 26 23 22 22 24 19 18 21 26 26 25 24 23 23 22 21 19 19 18 18 18 17 17 16 14 12 11
23 20 19 18 20 20 16 21 24 26 28 26 26 27 26 27 23 25 21 24 22 18 17 15 24 26 24 23 23 22 21 21 20 19 18 18 18 17 16 15 13 12 11 11
22 19 15 20 23 28 29 31 28 29 28 28 26 25 26 26 24 23 22 21 18 18 15 21 26 24 23 23 22 21 20 19 19 18 17 16 16 15 14 13 12 11 11 9
27 26 26 30 28 28 28 28 28 29 29 27 25 23 17 20 22 20 19 18 14 16 22 24 25 24 23 23 22 21 19 18 16 15 14 14 14 14 12 11 10 9 8 9
26 27 30 30 30 29 30 29 29 30 25 22 23 16 7 23 21 21 19 17 21 26 25 26 25 24 23 22 20 18 17 16 14 13 12 12 12 12 12 11 10 10 9 8

GFSNW_sfc_30mbdewp_162.txt.gz
Dewpoint
41 43 43 43 43 43 43 39 31 42 47 35 35 32 35 35 36 35 35 35 35 31 28 19 21 23 19 14 13 10 13 12 6 3 8 7 8 7 10 5 5 13 11 3
42 43 42 42 43 43 40 34 33 40 41 28 30 33 33 33 31 34 34 36 36 37 35 32 26 20 20 17 11 9 12 13 8 6 8 9 3 8 13 14 13 7 3 4
41 42 41 42 43 44 42 34 28 33 36 35 32 28 32 33 37 35 36 38 38 37 36 36 34 29 20 19 15 17 13 17 9 11 10 10 5 7 12 7 4 4 5 5
40 41 41 40 42 42 39 31 29 29 27 29 30 32 30 30 27 33 32 34 36 34 33 33 33 26 18 18 20 18 17 15 13 10 9 9 8 7 12 6 3 4 6 7
41 41 40 41 41 41 39 31 30 32 30 28 31 30 28 31 31 30 30 31 30 35 33 33 32 33 27 22 18 17 21 20 15 10 12 11 8 9 13 12 11 9 10 10
40 39 40 42 41 40 36 34 37 30 26 28 28 27 26 26 30 30 31 31 32 32 34 36 35 35 35 33 32 25 22 21 12 9 12 9 5 8 9 11 14 12 10 12
38 38 40 41 41 40 36 34 36 31 24 28 27 26 28 27 28 28 31 32 30 31 35 34 35 38 37 38 35 28 22 20 16 15 10 10 12 15 11 9 10 14 15 18
37 39 39 40 40 40 39 39 33 31 24 26 27 29 28 29 29 29 30 30 36 34 32 30 28 28 29 30 33 30 27 23 24 21 18 17 16 13 12 9 9 22 19 23
37 38 38 40 39 39 39 38 38 33 28 26 31 30 29 29 28 28 29 36 38 35 33 30 24 21 24 24 26 30 31 31 25 22 18 16 14 17 21 17 9 23 23 23
37 37 38 38 39 37 38 38 39 35 28 32 32 28 28 30 30 29 30 32 36 36 31 27 25 24 26 19 17 19 18 20 18 19 18 18 18 20 19 11 12 25 25 24
36 37 38 38 39 38 38 37 40 35 32 29 31 32 33 31 32 29 31 34 33 32 29 28 27 26 24 22 22 19 15 14 13 18 20 18 22 20 15 20 28 27 26 27
34 36 37 38 38 37 39 36 39 40 35 32 38 36 37 36 36 32 34 33 34 33 31 30 26 25 27 25 21 21 17 19 18 19 20 24 30 23 28 28 27 27 27 28
35 34 35 37 37 38 39 37 38 38 34 33 34 32 37 40 39 39 31 34 36 34 33 29 26 18 21 20 20 20 22 23 19 21 27 28 30 30 29 28 27 28 28 24
34 34 36 36 36 36 38 36 37 38 34 27 27 39 37 40 40 41 39 37 39 35 32 28 28 21 23 19 21 19 22 24 24 26 29 29 29 29 28 28 28 25 23 20
35 35 36 35 36 36 37 38 37 39 35 28 31 36 37 39 41 39 38 39 37 35 30 28 24 23 23 25 23 22 25 23 21 18 28 26 28 29 28 26 24 22 20 19
37 36 38 39 38 37 37 31 38 39 40 33 26 34 35 36 37 39 38 40 36 33 32 28 24 25 21 20 20 22 27 27 25 22 30 30 30 28 25 23 21 20 19 19
37 37 37 37 38 37 32 32 37 40 41 32 28 29 34 36 36 34 37 37 33 32 30 24 21 21 20 15 15 23 27 29 31 31 30 28 27 25 21 19 20 20 18 18
38 38 39 39 38 37 35 36 42 41 36 35 28 27 30 34 31 31 34 32 30 27 24 21 20 23 21 12 25 31 31 31 30 30 29 29 23 20 19 18 17 17 16 17
38 40 39 37 36 34 33 40 44 41 35 30 29 25 25 34 31 32 31 28 24 27 19 19 20 16 9 16 30 30 30 29 29 27 25 22 21 18 16 16 15 15 15 15
40 38 34 30 33 39 40 38 34 35 36 33 28 31 27 31 28 26 22 24 20 16 23 26 18 16 25 27 32 31 30 28 27 25 23 20 18 17 16 15 15 14 14 14
34 32 31 38 40 36 34 30 28 29 27 30 29 31 27 31 22 24 25 21 23 16 21 20 20 17 22 30 31 30 29 28 28 27 25 23 20 17 16 16 15 14 14 13
34 37 39 38 34 31 27 24 26 26 23 27 25 25 28 28 29 20 25 23 22 12 23 18 18 23 26 29 29 28 27 27 26 25 23 21 19 18 17 16 15 15 14 13
39 33 31 31 28 22 21 18 22 24 26 27 27 24 26 26 27 24 23 21 21 24 19 16 18 25 28 27 26 26 25 23 22 20 19 19 18 18 17 16 16 14 13 11
26 25 23 21 21 21 19 20 23 26 27 27 26 26 24 26 23 23 21 23 22 19 17 16 20 26 26 25 25 24 23 21 20 20 19 18 18 17 16 15 14 12 10 9
21 19 14 18 21 26 29 29 28 28 28 27 25 25 26 25 23 22 23 21 19 19 16 18 23 25 24 24 24 23 21 19 19 19 17 16 15 15 13 12 12 10 9 8
27 26 25 28 27 27 27 27 27 29 27 25 24 23 20 18 21 19 19 18 14 14 20 23 25 24 24 23 22 21 20 18 17 16 15 14 14 13 12 10 10 9 9 7
26 27 30 30 30 28 28 29 28 29 24 22 21 15 11 22 18 17 20 16 17 25 24 25 24 24 23 21 20 18 17 16 14 14 14 12 12 11 11 10 9 9 8 7

GFSNW_sfc_30mbdewp_168.txt.gz
Dewpoint
39 39 41 43 43 44 44 39 31 42 47 34 34 30 29 32 31 27 32 30 29 28 27 27 27 27 27 24 22 24 25 23 23 18 10 9 10 12 12 12 12 12 13 14
38 39 39 42 43 44 39 36 34 41 41 28 29 28 27 29 28 29 27 30 29 28 28 27 28 26 26 24 21 22 22 21 23 22 22 18 8 9 11 16 18 13 12 14
37 38 40 41 43 43 41 34 28 34 37 32 30 26 24 22 27 32 35 30 29 28 28 30 29 26 28 26 25 29 23 22 21 20 18 22 19 15 13 13 12 10 11 13
37 38 39 40 42 43 40 34 30 27 28 30 31 28 24 22 20 26 32 35 34 32 27 25 26 28 31 33 33 30 31 23 22 24 24 24 27 18 12 10 11 17 22 24
37 39 40 40 41 42 39 31 30 33 26 22 31 32 30 22 19 19 23 28 34 32 33 34 33 33 33 33 35 33 34 30 29 28 28 27 25 27 25 24 16 15 15 11
38 38 40 40 41 41 36 36 35 34 26 26 23 26 25 25 23 21 19 21 31 30 29 32 33 35 35 35 34 33 32 31 29 24 25 25 25 28 24 24 24 21 14 13
38 39 40 40 40 41 38 36 35 31 26 26 25 23 23 24 21 24 23 25 29 31 33 34 33 34 36 37 36 37 32 32 31 26 26 18 19 21 23 19 14 14 13 12
39 39 39 40 40 40 37 37 34 32 25 28 26 29 28 28 27 27 27 28 33 38 36 32 29 29 28 30 32 36 35 32 28 24 23 21 22 21 19 19 19 20 18 16
39 39 39 39 40 40 39 37 39 33 28 27 28 26 26 26 24 23 26 28 31 32 33 30 21 14 10 9 27 32 36 32 27 27 21 17 18 21 20 16 15 18 17 17
39 38 39 39 38 39 39 38 39 35 29 30 30 27 26 26 24 20 21 23 29 32 30 25 21 14 10 8 20 25 28 28 26 25 23 24 23 19 18 15 20 23 21 22
37 36 38 38 39 36 38 37 40 36 31 29 31 30 31 33 31 22 30 30 29 28 25 22 18 15 13 15 15 26 26 24 24 27 25 21 25 19 16 23 28 28 27 27
36 36 37 38 37 35 37 34 38 39 33 31 35 32 31 30 31 30 30 31 30 32 26 22 19 22 29 17 15 24 25 29 25 25 23 28 24 25 28 28 28 29 29 30
37 35 36 36 36 37 36 34 38 37 32 33 33 29 33 33 33 33 27 31 32 32 34 33 27 21 20 20 22 23 25 26 28 26 26 26 29 31 29 30 30 29 30 26
37 35 35 35 35 37 37 35 39 37 34 27 26 33 31 31 34 34 33 27 34 34 36 31 30 28 25 19 19 24 27 27 24 27 28 30 30 31 30 29 29 28 26 25
35 35 35 34 36 38 39 38 38 37 30 26 29 33 33 34 33 33 35 35 33 33 31 29 26 25 28 25 26 24 27 26 26 27 32 29 29 31 31 29 27 26 25 24
35 35 35 34 36 39 37 32 35 36 35 29 23 30 32 35 36 34 33 35 35 34 31 29 28 29 27 23 19 20 22 26 29 31 32 30 32 31 29 27 26 25 24 23
35 35 36 35 36 36 30 29 37 39 36 30 26 27 33 35 35 36 36 36 36 34 32 31 31 28 28 27 22 22 24 26 34 34 31 29 29 27 27 26 25 24 22 21
35 35 36 37 37 36 32 32 38 37 34 33 27 26 31 36 31 30 36 33 35 32 32 32 30 29 28 24 24 25 27 29 30 30 29 28 27 27 25 24 22 21 20 20
35 35 36 37 36 33 29 35 38 37 31 27 28 23 21 33 31 32 30 32 27 32 29 29 31 29 25 25 24 27 29 29 29 29 27 27 26 25 23 22 22 21 20 19
35 35 32 30 34 36 37 34 32 33 32 31 28 32 27 32 31 29 30 31 29 25 28 31 27 26 27 26 25 28 30 30 29 26 26 26 25 24 23 22 22 20 19 18
35 31 30 33 36 35 33 28 27 30 27 31 30 28 24 33 29 29 31 29 28 25 26 27 27 24 24 25 30 31 31 29 28 27 27 26 26 24 23 21 20 19 19 17
33 34 36 34 30 30 27 25 28 26 25 29 29 31 32 32 33 30 29 26 25 16 27 26 18 17 22 28 31 31 30 29 28 27 27 26 25 23 21 20 20 19 19 18
35 34 29 30 28 23 21 18 22 24 27 29 30 30 33 32 32 29 28 25 20 24 23 16 14 24 27 29 30 29 29 28 26 26 26 24 23 22 21 20 20 19 20 19
31 28 23 23 22 23 21 19 20 27 29 29 30 30 30 28 27 26 24 25 24 20 18 15 22 26 29 30 29 28 26 26 26 24 24 23 22 22 22 22 21 20 19 18
27 26 16 23 26 26 28 29 27 29 30 29 27 27 27 27 25 24 24 24 20 19 17 24 27 28 29 29 28 26 25 26 26 26 24 23 22 21 21 20 20 19 17 16
29 28 26 27 27 28 28 28 29 32 30 29 27 26 25 23 23 22 20 16 13 20 25 27 27 28 29 28 27 27 27 28 26 25 23 22 21 20 20 19 19 16 16 15
28 28 31 30 29 28 29 30 31 32 29 26 25 22 21 23 20 17 20 22 24 26 26 27 27 28 29 29 27 25 25 25 24 23 22 21 20 18 17 17 16 16 15 14

GFSNW_sfc_30mbdewp_171.txt.gz
Dewpoint
37 39 40 41 43 44 42 39 32 41 46 35 35 31 27 26 23 23 25 29 27 21 23 24 31 34 32 31 28 26 28 27 25 19 18 14 13 15 17 19 15 18 18 16
37 38 39 40 42 43 37 35 35 41 44 29 30 30 26 27 22 21 22 24 28 26 22 26 33 32 36 35 34 27 28 31 29 25 25 17 14 16 15 18 21 17 21 19
37 37 38 39 41 42 40 35 29 35 38 36 31 30 23 20 22 22 22 25 30 29 26 27 26 24 26 29 30 33 32 30 30 23 19 22 26 21 17 15 16 17 17 19
37 37 37 39 40 42 37 36 30 26 28 29 30 29 27 25 21 19 22 23 31 30 26 25 26 27 26 32 35 33 31 29 27 24 20 19 17 24 24 19 13 14 16 17
38 37 38 40 40 41 37 31 29 28 24 21 20 27 24 21 23 27 18 19 21 26 27 30 27 25 25 26 34 35 36 31 32 29 29 28 24 24 22 23 23 18 19 23
38 39 39 40 40 40 33 33 34 34 27 19 18 18 20 23 30 31 26 20 20 17 19 25 34 37 36 36 36 35 33 31 29 24 24 25 29 32 29 27 26 25 19 18
38 39 40 40 40 40 34 34 31 31 22 22 18 15 13 14 17 24 25 20 23 21 26 30 30 35 37 38 37 35 33 32 32 26 23 21 21 19 21 23 24 26 26 26
38 39 40 40 40 41 39 38 35 29 24 20 18 17 21 15 19 19 21 22 23 27 32 26 24 26 29 32 34 35 35 32 27 23 24 23 25 22 21 20 20 21 24 25
39 40 40 40 41 41 41 39 38 34 27 22 21 26 19 26 22 23 23 25 30 31 30 25 19 16 18 19 18 23 30 33 27 21 18 17 19 18 22 21 18 20 21 21
39 39 39 40 41 41 40 37 40 35 28 26 27 26 26 28 23 25 24 25 29 30 31 26 22 15 16 16 14 24 27 29 25 24 20 17 14 12 20 16 14 23 21 21
39 37 38 38 40 39 40 37 39 34 32 30 34 30 32 31 29 23 21 27 28 30 26 22 22 23 17 18 14 15 23 23 22 24 23 18 19 18 19 24 27 27 24 23
38 37 38 38 38 39 39 35 39 39 34 31 37 34 34 28 29 30 32 31 28 31 29 24 19 19 20 16 11 11 14 25 22 21 17 20 27 26 25 29 28 28 29 29
37 37 37 37 37 36 37 35 39 38 33 30 29 26 30 32 30 31 26 28 27 31 31 26 26 23 15 16 17 23 23 28 27 25 23 24 27 29 30 29 29 29 30 31
36 37 36 36 36 36 36 36 38 36 32 27 22 27 28 28 31 31 32 30 33 32 33 30 26 24 25 18 14 21 26 31 29 26 26 25 26 29 30 29 30 29 29 27
37 37 36 35 35 36 35 37 37 35 32 28 25 29 30 31 30 29 29 31 30 35 31 31 26 25 23 22 22 21 22 21 27 25 27 31 28 34 33 33 32 30 27 25
37 36 35 35 36 37 37 33 34 37 36 31 22 24 25 28 30 30 30 30 32 33 34 28 27 24 30 26 20 16 17 18 22 22 31 34 36 37 40 38 31 27 25 24
37 36 36 35 38 33 32 31 37 39 35 31 23 20 23 26 30 32 30 30 32 33 33 30 26 24 29 26 20 17 17 16 21 34 34 34 35 34 32 28 27 26 25 24
36 36 36 37 37 35 31 37 38 37 35 32 24 21 30 34 30 31 35 33 33 34 32 33 30 26 28 24 20 19 19 19 27 34 35 34 33 33 32 27 25 24 22 22
35 36 36 34 33 30 28 35 38 37 31 26 28 21 22 35 33 33 32 34 28 34 29 30 29 25 25 22 20 20 21 25 30 33 32 32 31 30 27 25 23 22 22 22
36 32 33 30 34 36 34 32 31 32 32 30 23 26 26 33 32 30 30 31 29 26 27 28 30 25 24 22 22 24 26 29 30 29 29 29 27 26 25 23 23 23 22 21
31 31 31 37 37 32 29 28 27 27 27 29 26 23 23 33 28 26 32 30 31 25 27 26 24 21 22 23 24 26 27 30 30 29 28 27 27 26 25 24 24 23 22 21
30 32 36 34 31 29 25 24 27 28 23 30 28 28 29 32 35 30 31 27 28 23 29 27 22 20 23 25 26 29 31 30 30 29 27 27 27 27 25 24 23 22 21 22
32 33 31 29 27 22 21 17 20 24 30 31 32 29 32 33 32 30 29 25 24 24 21 21 18 23 22 25 31 31 30 29 28 27 27 27 27 26 25 24 23 23 23 21
28 28 24 23 22 22 18 17 20 30 28 29 34 31 32 34 30 29 25 24 24 20 16 14 24 26 27 30 30 29 29 29 29 27 27 26 25 26 27 26 25 24 22 21
30 25 19 23 24 28 29 30 29 28 29 30 34 32 31 30 28 26 24 24 20 18 16 28 27 28 29 30 30 29 28 29 30 29 28 27 26 25 25 25 25 23 22 20
29 29 27 28 28 30 31 30 30 31 30 31 33 29 28 27 26 23 20 14 12 24 28 28 28 28 29 30 29 29 31 31 30 28 27 26 25 24 24 24 23 21 20 19
29 28 31 29 29 29 31 32 29 35 32 29 26 25 24 25 21 16 17 22 27 27 27 27 28 28 31 32 31 30 30 29 29 28 27 26 26 24 22 21 20 21 20 19

GFSNW_sfc_30mbdewp_174.txt.gz
Dewpoint
37 38 40 41 43 43 40 38 33 41 44 35 34 30 27 26 23 23 22 24 24 26 26 26 25 25 28 41 38 34 33 34 28 24 20 19 19 19 19 19 17 19 20 19
38 38 38 39 41 42 35 33 36 39 42 28 30 27 27 27 25 22 20 20 21 23 23 24 25 25 27 34 40 37 36 34 30 26 25 24 16 16 16 20 24 21 21 19
38 38 38 39 40 41 37 35 29 35 38 35 31 28 29 27 22 21 21 21 20 20 23 24 26 26 24 32 39 40 39 33 31 28 27 29 28 32 31 25 21 20 21 21
38 37 38 38 40 41 37 35 29 26 27 29 28 27 26 26 27 27 23 19 19 21 22 26 26 27 26 25 36 35 35 30 31 32 30 26 25 25 31 30 31 23 22 20
39 37 38 39 40 40 35 31 28 25 21 20 19 24 22 18 16 19 22 18 24 29 29 23 26 27 28 28 30 35 37 29 29 29 31 27 22 24 24 25 26 26 33 28
38 38 39 39 39 39 30 30 29 32 24 21 18 18 17 17 18 18 17 20 27 29 31 31 24 25 29 32 33 33 33 31 30 26 23 23 24 27 27 25 25 25 25 26
38 39 39 39 40 39 31 31 31 31 23 22 17 15 13 11 10 11 13 24 26 25 30 35 32 31 31 31 31 36 33 32 31 26 26 20 24 24 21 20 20 24 25 26
38 38 39 40 40 40 36 32 34 33 27 20 17 16 14 13 14 13 13 18 25 29 33 31 30 25 25 26 25 34 35 32 28 24 25 25 20 19 19 22 23 21 21 20
39 39 39 40 41 40 40 39 39 35 28 23 20 18 18 18 19 20 19 23 26 28 30 26 22 13 11 10 12 30 34 33 29 25 21 16 15 16 19 27 20 25 22 22
39 39 40 40 40 40 40 38 39 34 29 26 23 23 19 20 20 23 25 26 26 27 27 24 21 20 12 11 12 17 24 30 27 25 22 19 16 14 18 16 18 24 27 28
39 39 39 39 39 40 40 38 40 36 31 29 28 27 25 25 27 24 22 27 27 29 28 25 20 16 15 15 16 15 19 23 22 23 21 17 23 19 14 20 23 28 29 30
39 39 39 38 38 39 40 37 40 40 33 32 36 37 34 31 30 29 33 29 28 29 29 29 28 22 21 17 21 23 16 22 25 22 18 22 21 20 29 31 29 30 29 33
38 38 38 39 38 38 39 35 38 37 31 32 32 28 31 32 33 36 31 35 34 34 32 27 23 21 25 20 18 19 18 20 24 29 30 26 26 28 37 37 33 31 31 33
37 37 38 37 38 38 38 37 38 34 32 28 23 26 27 28 28 30 31 31 37 37 34 28 24 20 22 18 23 26 28 25 24 26 27 31 31 32 34 34 31 30 31 31
35 35 36 37 36 36 36 37 38 39 34 28 26 26 24 27 27 27 27 29 29 31 32 29 25 22 21 21 20 17 16 26 28 25 30 32 29 32 37 33 30 30 28 27
36 36 36 36 35 36 35 33 35 38 37 31 22 21 22 23 26 27 27 28 29 32 33 32 28 24 24 23 18 15 14 18 30 29 33 33 34 38 37 36 35 35 28 27
37 37 37 37 37 33 32 33 37 40 38 33 23 19 20 21 24 26 28 28 29 31 31 31 28 27 27 30 25 23 22 21 19 29 34 35 35 35 36 39 40 39 38 31
37 37 37 37 37 35 31 37 38 39 35 33 23 19 20 30 26 27 34 31 32 34 33 31 27 27 26 22 19 20 20 19 18 23 33 33 34 33 35 35 33 31 28 25
36 36 36 33 33 29 26 35 38 36 32 27 25 18 16 34 31 32 34 34 29 33 30 27 26 24 22 21 20 20 19 18 19 28 33 33 34 34 34 34 34 28 23 23
36 32 29 29 31 37 37 35 33 33 31 30 23 23 24 32 31 30 30 31 28 26 29 27 27 24 24 23 22 22 21 22 25 33 32 32 33 35 35 32 26 24 23 23
29 31 27 34 37 32 29 27 25 25 24 25 23 22 22 34 29 28 31 28 29 24 24 27 26 21 23 25 26 26 25 24 29 32 33 33 34 32 30 26 25 25 24 24
28 30 35 37 34 28 25 22 23 24 19 27 26 25 28 27 30 29 31 27 29 22 32 27 24 27 24 23 24 26 25 28 31 33 34 32 30 29 27 26 26 25 25 24
27 28 30 30 26 23 20 19 21 21 29 31 32 30 32 32 34 30 29 26 24 28 27 21 28 25 27 27 33 34 33 33 33 33 30 30 29 28 28 27 27 25 23 22
27 27 22 23 21 20 19 20 27 31 32 32 32 31 29 32 28 30 25 27 27 19 18 20 28 27 28 32 36 34 34 35 33 31 30 30 30 29 28 27 25 23 22 22
29 28 22 22 23 26 29 31 30 31 31 30 30 31 32 30 28 28 28 24 20 22 24 30 28 28 31 33 32 32 31 31 31 30 29 28 27 27 26 26 25 23 22 21
31 30 26 28 28 30 31 32 31 31 33 33 33 31 28 27 28 26 23 20 14 27 28 29 28 29 31 35 32 32 33 31 29 28 28 27 26 26 26 26 24 23 21 21
29 26 30 30 30 29 32 32 31 32 32 30 28 27 23 27 23 24 23 25 29 29 28 27 27 30 32 32 31 31 30 29 29 28 27 27 27 26 24 22 23 23 22 21